FDX2995 EDDF-LIEE

Flight info

Callsign FDX2995
Flight time N/A
Altitude 36000
Route ANEKI2L/18 ANEKI Y163 NATOR N850 ODINA DCT PIDAD DCT GOPAT DCT KOVAS
Aircraft B77L/H-SDE1E2E3FGHIJ2J3J4J5M1RWXY/LB1D1

Departure

Time 2026-05-05 19:09
Airport Frankfurt Main Airport (EDDF)

Arrival

Time N/A
Airport Cagliari Elmas Airport (LIEE)
Time Latitude Longitude Altitude Speed Heading
2026-05-05 18:33 50.03749 8.53228 360 ft 0 kts 339°
2026-05-05 18:59 50.03732 8.53238 359 ft 3 kts 339°
2026-05-05 18:59 50.03715 8.53249 357 ft 3 kts 339°
2026-05-05 18:59 50.03697 8.53259 357 ft 3 kts 323°
2026-05-05 18:59 50.03685 8.53282 360 ft 3 kts 280°
2026-05-05 19:00 50.03684 8.53304 350 ft 0 kts 255°
2026-05-05 19:03 50.03678 8.53285 360 ft 6 kts 239°
2026-05-05 19:03 50.03641 8.53196 356 ft 11 kts 243°
2026-05-05 19:04 50.03612 8.53084 357 ft 11 kts 249°
2026-05-05 19:04 50.03584 8.52972 358 ft 11 kts 249°
2026-05-05 19:04 50.03557 8.52860 356 ft 11 kts 249°
2026-05-05 19:04 50.03531 8.52747 359 ft 11 kts 251°
2026-05-05 19:05 50.03508 8.52615 357 ft 16 kts 265°
2026-05-05 19:05 50.03491 8.52424 356 ft 12 kts 251°
2026-05-05 19:05 50.03448 8.52313 359 ft 12 kts 205°
2026-05-05 19:05 50.03390 8.52383 358 ft 12 kts 105°
2026-05-05 19:06 50.03390 8.52416 357 ft 0 kts 84°
2026-05-05 19:08 50.03394 8.52499 356 ft 18 kts 90°
2026-05-05 19:08 50.03326 8.52592 355 ft 0 kts 184°
2026-05-05 19:08 50.03300 8.52591 356 ft 17 kts 180°
2026-05-05 19:09 50.02829 8.52599 351 ft 120 kts 179°
2026-05-05 19:09 50.01675 8.52609 477 ft 200 kts 180°
2026-05-05 19:09 50.00173 8.52627 1096 ft 231 kts 180°
2026-05-05 19:09 49.98508 8.52662 1989 ft 243 kts 181°
2026-05-05 19:10 49.96791 8.52671 2784 ft 248 kts 181°
2026-05-05 19:10 49.95118 8.52788 3955 ft 234 kts 179°
2026-05-05 19:10 49.93521 8.52954 4938 ft 228 kts 179°
2026-05-05 19:10 49.91932 8.53108 5713 ft 230 kts 179°
2026-05-05 19:11 49.90318 8.53250 6405 ft 234 kts 179°
2026-05-05 19:11 49.88685 8.53385 6955 ft 236 kts 180°
2026-05-05 19:11 49.87024 8.53514 7049 ft 242 kts 180°
2026-05-05 19:11 49.85341 8.53640 7057 ft 241 kts 180°
2026-05-05 19:12 49.83675 8.53761 7052 ft 238 kts 180°
2026-05-05 19:12 49.82032 8.53878 7057 ft 236 kts 180°
2026-05-05 19:12 49.80391 8.53993 7064 ft 237 kts 180°
2026-05-05 19:12 49.78738 8.54109 7222 ft 237 kts 180°
2026-05-05 19:13 49.77089 8.54117 7907 ft 238 kts 186°
2026-05-05 19:13 49.75455 8.53912 8576 ft 240 kts 188°
2026-05-05 19:13 49.73761 8.53660 9285 ft 242 kts 188°
2026-05-05 19:13 49.72074 8.53410 9946 ft 245 kts 187°
2026-05-05 19:14 49.70841 8.53275 10379 ft 248 kts 185°
2026-05-05 19:14 49.69519 8.53198 10766 ft 257 kts 184°
2026-05-05 19:14 49.67641 8.53114 10982 ft 282 kts 184°
2026-05-05 19:14 49.65592 8.53026 11201 ft 308 kts 184°
2026-05-05 19:15 49.63357 8.52929 11405 ft 334 kts 183°
2026-05-05 19:15 49.60945 8.52821 11693 ft 357 kts 183°
2026-05-05 19:15 49.58445 8.52708 12103 ft 370 kts 183°
2026-05-05 19:15 49.55865 8.52590 12489 ft 373 kts 183°
2026-05-05 19:16 49.53263 8.52470 12875 ft 376 kts 183°
2026-05-05 19:16 49.50634 8.52345 13279 ft 379 kts 183°
2026-05-05 19:16 49.47994 8.52218 13678 ft 381 kts 183°
2026-05-05 19:16 49.45336 8.52089 14039 ft 383 kts 183°
2026-05-05 19:17 49.42660 8.51959 14406 ft 385 kts 184°
2026-05-05 19:17 49.39979 8.51828 14764 ft 386 kts 184°
2026-05-05 19:17 49.37284 8.51696 15126 ft 388 kts 184°
2026-05-05 19:17 49.34585 8.51563 15494 ft 389 kts 183°
2026-05-05 19:18 49.31879 8.51431 15873 ft 390 kts 183°
2026-05-05 19:18 49.29158 8.51297 16256 ft 392 kts 183°
2026-05-05 19:18 49.26420 8.51163 16644 ft 395 kts 183°
2026-05-05 19:18 49.23666 8.51028 17038 ft 397 kts 183°
2026-05-05 19:19 49.20890 8.50893 17426 ft 400 kts 183°
2026-05-05 19:19 49.18104 8.50758 17830 ft 402 kts 183°
2026-05-05 19:19 49.15303 8.50621 18229 ft 403 kts 183°
2026-05-05 19:19 49.12494 8.50484 18584 ft 405 kts 183°
2026-05-05 19:20 49.09671 8.50347 18948 ft 406 kts 183°
2026-05-05 19:20 49.06846 8.50210 19307 ft 408 kts 182°
2026-05-05 19:20 49.04003 8.50072 19674 ft 409 kts 182°
2026-05-05 19:20 49.01150 8.49934 20071 ft 412 kts 182°
2026-05-05 19:21 48.98263 8.49794 20723 ft 417 kts 182°
2026-05-05 19:21 48.95359 8.49654 21462 ft 420 kts 182°
2026-05-05 19:21 48.92427 8.49512 22166 ft 423 kts 182°
2026-05-05 19:21 48.89474 8.49370 22834 ft 427 kts 182°
2026-05-05 19:22 48.86487 8.49226 23465 ft 431 kts 181°
2026-05-05 19:22 48.83472 8.49081 24021 ft 435 kts 181°
2026-05-05 19:22 48.80436 8.48936 24590 ft 438 kts 181°
2026-05-05 19:22 48.77386 8.48789 25152 ft 441 kts 181°
2026-05-05 19:23 48.74312 8.48642 25783 ft 442 kts 182°
2026-05-05 19:23 48.71245 8.48495 26357 ft 444 kts 182°
2026-05-05 19:23 48.68134 8.48346 26878 ft 448 kts 182°
2026-05-05 19:23 48.65003 8.48196 27344 ft 452 kts 182°
2026-05-05 19:24 48.61843 8.48046 27843 ft 456 kts 182°
2026-05-05 19:24 48.58662 8.47894 28360 ft 458 kts 182°
2026-05-05 19:24 48.55465 8.47742 28837 ft 461 kts 182°
2026-05-05 19:24 48.52242 8.47589 29273 ft 465 kts 182°
2026-05-05 19:25 48.49002 8.47436 29689 ft 468 kts 182°
2026-05-05 19:25 48.45736 8.47281 30066 ft 470 kts 182°
2026-05-05 19:25 48.42467 8.47127 30509 ft 470 kts 182°
2026-05-05 19:25 48.39203 8.46972 31043 ft 467 kts 182°
2026-05-05 19:26 48.36010 8.46822 31565 ft 465 kts 182°
2026-05-05 19:26 48.32735 8.46668 32051 ft 464 kts 182°
2026-05-05 19:26 48.29556 8.46518 32494 ft 463 kts 183°
2026-05-05 19:26 48.26339 8.46367 32929 ft 462 kts 183°
2026-05-05 19:27 48.23085 8.46214 33386 ft 461 kts 183°
2026-05-05 19:27 48.19915 8.46065 33813 ft 461 kts 183°
2026-05-05 19:27 48.16716 8.45915 34168 ft 460 kts 183°
2026-05-05 19:27 48.13517 8.45765 34482 ft 460 kts 183°
2026-05-05 19:28 48.10328 8.45616 34784 ft 460 kts 183°
2026-05-05 19:28 48.07121 8.45467 35092 ft 460 kts 183°
2026-05-05 19:28 48.03919 8.45317 35401 ft 460 kts 183°
2026-05-05 19:28 48.00725 8.45169 35695 ft 460 kts 183°
2026-05-05 19:29 47.97528 8.45020 36000 ft 459 kts 183°
2026-05-05 19:29 47.94334 8.44871 36291 ft 459 kts 183°
2026-05-05 19:29 47.91148 8.44723 36575 ft 459 kts 184°
2026-05-05 19:29 47.87950 8.44575 36805 ft 460 kts 184°
2026-05-05 19:30 47.81507 8.44277 36882 ft 463 kts 184°
2026-05-05 19:30 47.75098 8.43981 36873 ft 458 kts 184°
2026-05-05 19:31 47.68768 8.43771 36888 ft 454 kts 181°
2026-05-05 19:31 47.62474 8.44598 36908 ft 453 kts 176°
2026-05-05 19:32 47.56215 8.45572 36910 ft 452 kts 177°
2026-05-05 19:32 47.51037 8.46347 36913 ft 451 kts 177°
2026-05-05 19:33 47.44793 8.47267 36911 ft 451 kts 177°
2026-05-05 19:33 47.38544 8.48178 36914 ft 451 kts 177°
2026-05-05 19:34 47.32293 8.49087 36891 ft 452 kts 177°